星链-37657(STARLINK-37657)

导读

STARLINK-37657(NORAD编号69145)是SpaceX星链(Starlink)卫星互联网星座的一员,隶属于美国太空探索技术公司SpaceX开发的低轨卫星通信网络。星链项目旨在通过部署数千颗低地球轨道卫星,为全球提供低成本、高速的天基互联网接入服务。该卫星运行在近地轨道,是星链星座组网的组成部分,用于补充和扩展星座的全球覆盖能力,为地面用户提供宽带互联网通信服务,助力实现全球尤其是偏远地区的网络覆盖。作为星链计划批量部署的卫星之一,它依托猎鹰9号火箭发射入轨,延续了SpaceX可重复使用火箭降低发射成本的设计思路。

Basic Information
目录编号:
69145
目录名称:
STARLINK-37657
国际标识:
2026-110X
轨道中心:
EARTH
卫星名称:
星链-37657
卫星全名:
星链-37657(STARLINK-37657)
卫星状态:
在轨 (已飞行107 天)
发射日期:
2026-05-20 UTC
国别 :
美国 (US)
星等 :
--
Orbit Information
数据来源 国际轨道数据 AOE轨道数据
星历时间 2026-09-04T14:34:25+0800
11小时前
查看轨道信息
2026-08-31T02:00:00+0800
4天前
查看轨道信息
半长轴 6843.671km 6843.742km
偏心率 0.0002305 0.0001643
轨道倾角 97.286° 97.286°
近地点辐角 85.883° 84.467°
升交点赤经 82.626° 78.166°
平近点角 274.267° 158.281°
近地点 463.956km 464.48km
远地点 467.112km 466.73km
周期 93.906分钟 93.907分钟
每日圈数 15.334482 15.334245
Detailed Information
固有亮度:
5
最大亮度:
2.5
卫星平台:
Starlink V1.0
覆盖范围:
全球
运营商:
太空探索技术公司
运营商所在国:
美国
制造商(研发单位):
太空探索技术公司
制造商所在国:
美国
使用方式:
暂无
Satellite Introduction
Starlink 计划是 SpaceX 推出的全球卫星互联网项目,通过发射低轨道卫星,为全球尤其是偏远地区提供高速、低延迟的互联网服务。自 2019 年起,Starlink 已部署数千颗卫星,旨在缩小全球数字鸿沟,推动互联网普及。该项目还为军事、航空等行业提供通信支持,带来广泛经济效益。
2D Orbit Map
3D Orbit Map
Orbit Altitude Analysis Chart
Orbit Inclination Analysis Chart
Orbit Comprehensive Analysis Chart
View Comprehensive Chart
Conjunction Data List
Event ID Objects TCA Miss Dist (km) Collision Risk Probability Collision Risk Index (CRI) Action
CDM_260905-190104-302406-914521
2026-09-05T
19:01:04+0000
1.118 km
极远距离
1.478705E-5 中风险 0.58
CDM_260906-144204-177206-914521
2026-09-06T
14:42:14+0000
1.720 km
极远距离
4.368815E-6 低风险 0.48
CDM_260904-141204-839006-914521
2026-09-04T
14:12:10+0000
2.409 km
极远距离
1.81039E-6 低风险 0.4
CDM_260905-055006-625906-914521
2026-09-05T
05:50:05+0000
2.367 km
极远距离
1.614228E-6 低风险 0.39
CDM_260906-155804-858006-914521
2026-09-06T
15:58:02+0000
2.507 km
极远距离
1.564057E-6 低风险 0.39
CDM_260907-011606-027906-914521
2026-09-07T
01:16:25+0000
2.660 km
极远距离
1.561083E-6 低风险 0.39
CDM_260904-165605-853406-914521
2026-09-04T
16:56:22+0000
2.836 km
极远距离
1.398904E-6 低风险 0.38
CDM_260904-110206-091706-914521
2026-09-04T
11:02:23+0000
2.645 km
极远距离
1.351931E-6 低风险 0.38
CDM_260906-001006-231706-914521
2026-09-06T
00:10:36+0000
2.678 km
极远距离
9.572137E-7 极低风险 0.35
CDM_260905-020606-533406-914521
2026-09-05T
02:06:15+0000
2.874 km
极远距离
8.357245E-7 极低风险 0.33